Погода в Вершине

Россия / Иркутская область     54°37′40″N   99°49′08″E
темп.,
°C
ветер,
м/с
пор.,
м/с
влажн.,
%
обл.,
%
осадки,
мм/ч
давл.,
гПа
погр.,
м
14 мая, пт
пт1423:00+2вюв22530 0.0 102017
02:000юв22610 0.0 102041
05:00−1юв26610 0.0 1020101
08:00+5ююв49415 0.0 1018374
11:00+11ююв46265 0.0 10151074
14:00+15ю341865 0.0 10121679
17:00+17ююв351876 0.0 10101780
20:00+13юв3735100 0.0 1009178
15 мая, сб
сб1523:00+6сз5128696 0.0 1014633
02:00+5зсз51190100 0.5 10171096
05:00+2з31076100 0.1 1020397
08:00+5з41264100 0.1 10201209
11:00+9з51247100 0.0 10181895
14:00+9зюз51364100 0.8 10161504
17:00+10з61468100 0.9 10141435
20:00+10з6167596 2.4 10151413
16 мая, вс
вс1623:00+9з61371100 0.0 1015890
02:00+10з6147289 0.0 1013954
05:00+11з61567100 0.1 10111239
08:00+10зсз61788100 3.5 10121757
11:00+9зсз3995100 2.5 1013823
14:00+7ссз2492100 2.9 1015338
17:00+8зсз0190100 0.5 1013231
20:00+7с1197100 1.2 101223
17 мая, пн
пн1723:00+7вюв13100100 8.9 100896
02:00+7ссв2599100 16.4 1007219
05:00+6сз2799100 2.4 1009458
08:00+6зюз0198100 2.6 101097
11:00+6ю0197100 0.3 1008112
14:00+9ссз2391100 0.5 1005274
17:00+6с2597100 1.1 1005253
20:00+5ссз2798100 3.6 1005356
18 мая, вт
вт1823:00+4ссз41097100 1.1 1008818
02:00+3сз41195100 1.1 10101057
05:00+3сз399172 0.0 1011669
08:00+4зсз3108298 0.1 1012797
11:00+7зсз6105363 0.0 10111726
14:00+9сз5937100 0.0 10091993
17:00+9сз4736100 0.0 10081979
20:00+7сз2552100 0.0 1008264